Tracking 19149 objects as of 19-Apr-2018
HD Live streaming from Space Station
objects crossing your sky now

OPS 5117 (NAVSTAR 5)

Track OPS 5117 (NAVSTAR 5) now!
OPS 5117 (NAVSTAR 5) is classified as:


NORAD ID: 11690
Int'l Code: 1980-011A
Perigee: 18,984.0 km
Apogee: 21,392.3 km
Inclination: 63.3 °
Period: 717.9 minutes
Semi major axis: 26559 km
RCS: 0.4791 m2 (medium)
Launch date: February 9, 1980
Source: United States (US)
Launch site: AIR FORCE WESTERN TEST RANGE (AFWTR)
PRN:
aabbcc
Your satellite tracking list
Your tracking list is empty




NASA's NSSDC Master Catalog

Two Line Element Set (TLE):
1 11690U 80011A   18108.39926999 +.00000074 +00000-0 +00000-0 0  9992
2 11690 063.2630 141.0878 0453385 195.7396 256.2911 02.00577132293924
Source of the keplerian elements: AFSPC